,,PA_Meas_PMT16A,,PR_Meas_QMR101_102,,RH_Meas_QMH101,,SR_Meas_QMS101,,TA_Meas_QMH101,,GenWind,,GenWind,
time,status,PA,status,PR,status,RH,status,SR,status,TA,status,DirAvg,status,SpdAvg,
2013-06-03, 00:00:05,VALID,915.34,VALID,0,VALID,96.4896,VALID,0,VALID,21.2226,VALID,118,VALID,0,
2013-06-03, 00:01:05,VALID,915.341,VALID,0,VALID,96.4972,VALID,0,VALID,21.2437,VALID,118,VALID,0,
2013-06-03, 00:02:05,VALID,915.348,VALID,0,VALID,96.4896,VALID,0,VALID,21.2827,VALID,308,VALID,0,
2013-06-03, 00:03:05,VALID,915.338,VALID,0,VALID,96.4743,VALID,0,VALID,21.2811,VALID,308,VALID,0,
2013-06-03, 00:04:05,VALID,915.344,VALID,0,VALID,96.4972,VALID,0,VALID,21.2811,VALID,310,VALID,0,
2013-06-03, 00:05:05,VALID,915.33,VALID,0,VALID,96.4819,VALID,0,VALID,21.3006,VALID,310,VALID,0,
2013-06-03, 00:06:05,VALID,915.306,VALID,0,VALID,96.4286,VALID,0,VALID,21.3006,VALID,310,VALID,0,
2013-06-03, 00:07:05,VALID,915.252,VALID,0,VALID,96.4286,VALID,0,VALID,21.3006,VALID,310,VALID,0,
2013-06-03, 00:08:05,VALID,915.216,VALID,0,VALID,96.4133,VALID,0,VALID,21.3201,VALID,310,VALID,0,
2013-06-03, 00:09:05,VALID,915.195,VALID,0,VALID,96.3829,VALID,0,VALID,21.3006,VALID,310,VALID,0,
2013-06-03, 00:10:05,VALID,915.218,VALID,0,VALID,96.36,VALID,0,VALID,21.2811,VALID,310,VALID,0,
2013-06-03, 00:11:05,VALID,915.221,VALID,0,VALID,96.36,VALID,0,VALID,21.3006,VALID,310,VALID,0,
2013-06-03, 00:12:05,VALID,915.192,VALID,0,VALID,96.3295,VALID,0,VALID,21.2827,VALID,310,VALID,0,
2013-06-03, 00:13:05,VALID,915.182,VALID,0,VALID,96.2685,VALID,0,VALID,21.2827,VALID,310,VALID,0,
2013-06-03, 00:14:05,VALID,915.17,VALID,0,VALID,96.2304,VALID,0,VALID,21.2632,VALID,310,VALID,0,
2013-06-03, 00:15:05,VALID,915.168,VALID,0,VALID,96.1999,VALID,0,VALID,21.2031,VALID,327,VALID,0,
2013-06-03, 00:16:05,VALID,915.197,VALID,0,VALID,96.1923,VALID,0,VALID,21.1836,VALID,337,VALID,0,
2013-06-03, 00:17:05,VALID,915.185,VALID,0,VALID,96.1999,VALID,0,VALID,21.2047,VALID,324,VALID,0,
2013-06-03, 00:18:05,VALID,915.161,VALID,0,VALID,96.177,VALID,0,VALID,21.164,VALID,349,VALID,0,
2013-06-03, 00:19:05,VALID,915.182,VALID,0,VALID,96.2151,VALID,0,VALID,21.164,VALID,349,VALID,0,
2013-06-03, 00:20:05,VALID,915.161,VALID,0,VALID,96.2151,VALID,0,VALID,21.164,VALID,349,VALID,0,
2013-06-03, 00:21:05,VALID,915.142,VALID,0,VALID,96.2075,VALID,0,VALID,21.1657,VALID,349,VALID,0,
2013-06-03, 00:22:05,VALID,915.144,VALID,0,VALID,96.1694,VALID,0,VALID,21.1461,VALID,349,VALID,0,
2013-06-03, 00:23:05,VALID,915.118,VALID,0,VALID,96.1313,VALID,0.107441,VALID,21.086,VALID,349,VALID,0,
2013-06-03, 00:24:05,VALID,915.083,VALID,0,VALID,96.1541,VALID,0,VALID,21.086,VALID,349,VALID,0,
2013-06-03, 00:25:05,VALID,915.038,VALID,0,VALID,96.1618,VALID,0.107441,VALID,21.1055,VALID,349,VALID,0,
2013-06-03, 00:26:05,VALID,915.023,VALID,0,VALID,96.1846,VALID,0,VALID,21.0665,VALID,349,VALID,0,
2013-06-03, 00:27:05,VALID,915.01,VALID,0,VALID,96.1923,VALID,0,VALID,21.0876,VALID,349,VALID,0,
2013-06-03, 00:28:05,VALID,915.014,VALID,0,VALID,96.1923,VALID,0,VALID,21.1071,VALID,349,VALID,0,
2013-06-03, 00:29:05,VALID,915.004,VALID,0,VALID,96.238,VALID,0.107441,VALID,21.1266,VALID,349,VALID,0,
2013-06-03, 00:30:05,VALID,914.983,VALID,0,VALID,96.2533,VALID,0,VALID,21.1055,VALID,349,VALID,0,
2013-06-03, 00:31:05,VALID,914.966,VALID,0,VALID,96.2685,VALID,0,VALID,21.125,VALID,349,VALID,0,
2013-06-03, 00:32:05,VALID,914.98,VALID,0,VALID,96.2685,VALID,0,VALID,21.1445,VALID,349,VALID,0,
2013-06-03, 00:33:05,VALID,914.964,VALID,0,VALID,96.2685,VALID,0,VALID,21.164,VALID,349,VALID,0,
2013-06-03, 00:34:05,VALID,914.954,VALID,0,VALID,96.2685,VALID,0,VALID,21.2242,VALID,353,VALID,0,
2013-06-03, 00:35:05,VALID,914.94,VALID,0,VALID,96.2609,VALID,0,VALID,21.2226,VALID,7,VALID,0,
2013-06-03, 00:36:05,VALID,914.95,VALID,0,VALID,96.2533,VALID,0,VALID,21.2421,VALID,7,VALID,0,
2013-06-03, 00:37:05,VALID,914.923,VALID,0,VALID,96.238,VALID,0,VALID,21.3022,VALID,7,VALID,0,
2013-06-03, 00:38:05,VALID,914.953,VALID,0,VALID,96.1999,VALID,0,VALID,21.2827,VALID,7,VALID,0,
2013-06-03, 00:39:05,VALID,914.914,VALID,0,VALID,96.1846,VALID,0,VALID,21.2811,VALID,7,VALID,0,
2013-06-03, 00:40:05,VALID,914.898,VALID,0,VALID,96.1999,VALID,0,VALID,21.3201,VALID,7,VALID,0,
2013-06-03, 00:41:05,VALID,914.906,VALID,0,VALID,96.1999,VALID,0,VALID,21.3396,VALID,7,VALID,0,
2013-06-03, 00:42:05,VALID,914.907,VALID,0,VALID,96.1846,VALID,0,VALID,21.3591,VALID,7,VALID,0,
2013-06-03, 00:43:05,VALID,914.91,VALID,0,VALID,96.1694,VALID,0,VALID,21.3981,VALID,7,VALID,0,
2013-06-03, 00:44:05,VALID,914.923,VALID,0,VALID,96.1618,VALID,0,VALID,21.4177,VALID,7,VALID,0,
2013-06-03, 00:45:05,VALID,914.903,VALID,0,VALID,96.1084,VALID,0,VALID,21.4177,VALID,7,VALID,0,
2013-06-03, 00:46:05,VALID,914.911,VALID,0,VALID,96.0703,VALID,0,VALID,21.4388,VALID,319,VALID,0,
2013-06-03, 00:47:05,VALID,914.938,VALID,0,VALID,96.055,VALID,0,VALID,21.4372,VALID,319,VALID,0,
2013-06-03, 00:48:05,VALID,914.92,VALID,0,VALID,96.0169,VALID,0,VALID,21.4567,VALID,320,VALID,0,
2013-06-03, 00:49:05,VALID,914.912,VALID,0,VALID,96.0017,VALID,0,VALID,21.4778,VALID,320,VALID,0,
2013-06-03, 00:50:05,VALID,914.904,VALID,0,VALID,95.9788,VALID,0,VALID,21.4778,VALID,259,VALID,0,
2013-06-03, 00:51:05,VALID,914.91,VALID,0,VALID,95.9483,VALID,0,VALID,21.4778,VALID,254,VALID,0,
2013-06-03, 00:52:05,VALID,914.886,VALID,0,VALID,95.8873,VALID,0,VALID,21.4583,VALID,270,VALID,0,
2013-06-03, 00:53:05,VALID,914.896,VALID,0,VALID,95.8721,VALID,0,VALID,21.4567,VALID,256,VALID,0,
2013-06-03, 00:54:05,VALID,914.872,VALID,0,VALID,95.8873,VALID,0,VALID,21.4372,VALID,198,VALID,0,
2013-06-03, 00:55:05,VALID,914.885,VALID,0,VALID,95.8873,VALID,0,VALID,21.499,VALID,198,VALID,0,
2013-06-03, 00:56:05,VALID,914.839,VALID,0,VALID,95.8645,VALID,0,VALID,21.4973,VALID,199,VALID,0,
2013-06-03, 00:57:05,VALID,914.825,VALID,0,VALID,95.8645,VALID,0,VALID,21.4957,VALID,199,VALID,0,
2013-06-03, 00:58:05,VALID,914.807,VALID,0,VALID,95.8111,VALID,0,VALID,21.5363,VALID,199,VALID,0,
2013-06-03, 00:59:05,VALID,914.794,VALID,0,VALID,95.7349,VALID,0,VALID,21.4973,VALID,199,VALID,0,
2013-06-03, 01:00:05,VALID,914.743,VALID,0,VALID,95.6891,VALID,0,VALID,21.4957,VALID,199,VALID,0,
2013-06-03, 01:01:05,VALID,914.74,VALID,0,VALID,95.6357,VALID,0,VALID,21.4762,VALID,198,VALID,0,
2013-06-03, 01:02:05,VALID,914.698,VALID,0,VALID,95.5824,VALID,0,VALID,21.4762,VALID,101,VALID,0,
2013-06-03, 01:03:05,VALID,914.655,VALID,0,VALID,95.529,VALID,0,VALID,21.4957,VALID,80,VALID,0,
2013-06-03, 01:04:05,VALID,914.615,VALID,0,VALID,95.4452,VALID,0,VALID,21.4762,VALID,80,VALID,0,
2013-06-03, 01:05:05,VALID,914.642,VALID,0,VALID,95.3613,VALID,0,VALID,21.4957,VALID,80,VALID,0,
2013-06-03, 01:06:05,VALID,914.606,VALID,0,VALID,95.3232,VALID,0.107441,VALID,21.4957,VALID,80,VALID,0,
2013-06-03, 01:07:05,VALID,914.581,VALID,0,VALID,95.2622,VALID,0,VALID,21.4957,VALID,80,VALID,0,
2013-06-03, 01:08:05,VALID,914.588,VALID,0,VALID,95.0792,VALID,0,VALID,21.4762,VALID,80,VALID,0,
2013-06-03, 01:09:05,VALID,914.558,VALID,0,VALID,95.1174,VALID,0,VALID,21.4973,VALID,80,VALID,0,
2013-06-03, 01:10:05,VALID,914.528,VALID,0,VALID,95.1402,VALID,0,VALID,21.4567,VALID,80,VALID,0,
2013-06-03, 01:11:05,VALID,914.509,VALID,0,VALID,95.1326,VALID,0,VALID,21.4762,VALID,80,VALID,0,
2013-06-03, 01:12:05,VALID,914.444,VALID,0,VALID,95.0792,VALID,0,VALID,21.4973,VALID,80,VALID,0,
2013-06-03, 01:13:05,VALID,914.448,VALID,0,VALID,95.1021,VALID,0,VALID,21.4973,VALID,80,VALID,0,
2013-06-03, 01:14:05,VALID,914.427,VALID,0,VALID,95.1402,VALID,0,VALID,21.5168,VALID,80,VALID,0,
2013-06-03, 01:15:05,VALID,914.421,VALID,0,VALID,95.1021,VALID,0,VALID,21.5168,VALID,80,VALID,0,
2013-06-03, 01:16:05,VALID,914.41,VALID,0,VALID,94.9725,VALID,0,VALID,21.4973,VALID,80,VALID,0,
2013-06-03, 01:17:05,VALID,914.415,VALID,0,VALID,95.064,VALID,0,VALID,21.4778,VALID,28,VALID,0,
2013-06-03, 01:18:05,VALID,914.411,VALID,0,VALID,95.0945,VALID,0,VALID,21.4973,VALID,28,VALID,0,
2013-06-03, 01:19:05,VALID,914.391,VALID,0,VALID,95.0106,VALID,0,VALID,21.4762,VALID,27,VALID,0,
2013-06-03, 01:20:05,VALID,914.414,VALID,0,VALID,95.0183,VALID,0,VALID,21.4778,VALID,22,VALID,0,
2013-06-03, 01:21:05,VALID,914.409,VALID,0,VALID,95.0488,VALID,0,VALID,21.4567,VALID,16,VALID,0,
2013-06-03, 01:22:05,VALID,914.409,VALID,0,VALID,94.8734,VALID,0.107441,VALID,21.4583,VALID,11,VALID,0,
2013-06-03, 01:23:05,VALID,914.405,VALID,0,VALID,94.942,VALID,0,VALID,21.4177,VALID,3,VALID,0,
2013-06-03, 01:24:05,VALID,914.361,VALID,0,VALID,95.003,VALID,0,VALID,21.3998,VALID,29,VALID,0,
2013-06-03, 01:25:05,VALID,914.326,VALID,0,VALID,94.9954,VALID,0,VALID,21.3786,VALID,21,VALID,0,
2013-06-03, 01:26:05,VALID,914.318,VALID,0,VALID,95.0106,VALID,0,VALID,21.3591,VALID,32,VALID,0,
2013-06-03, 01:27:05,VALID,914.273,VALID,0,VALID,94.9801,VALID,0,VALID,21.3786,VALID,29,VALID,0,
2013-06-03, 01:28:05,VALID,914.212,VALID,0,VALID,94.9115,VALID,0,VALID,21.3591,VALID,25,VALID,0,
2013-06-03, 01:29:05,VALID,914.24,VALID,0,VALID,94.9115,VALID,0.107441,VALID,21.3803,VALID,11,VALID,0,
2013-06-03, 01:30:05,VALID,914.292,VALID,0,VALID,94.8505,VALID,0,VALID,21.3396,VALID,354,VALID,0,
2013-06-03, 01:31:05,VALID,914.249,VALID,0,VALID,94.8658,VALID,0,VALID,21.3608,VALID,10,VALID,0,
2013-06-03, 01:32:05,VALID,914.257,VALID,0,VALID,94.7972,VALID,0,VALID,21.3396,VALID,28,VALID,0,
2013-06-03, 01:33:05,VALID,914.259,VALID,0,VALID,94.8124,VALID,0,VALID,21.3201,VALID,30,VALID,0,
2013-06-03, 01:34:05,VALID,914.283,VALID,0,VALID,94.7133,VALID,0,VALID,21.3608,VALID,33,VALID,0,
2013-06-03, 01:35:05,VALID,914.253,VALID,0,VALID,94.6981,VALID,0,VALID,21.3006,VALID,31,VALID,0,
2013-06-03, 01:36:05,VALID,914.234,VALID,0,VALID,94.7362,VALID,0,VALID,21.2811,VALID,39,VALID,0,
2013-06-03, 01:37:05,VALID,914.251,VALID,0,VALID,94.7362,VALID,0,VALID,21.2827,VALID,23,VALID,0,
2013-06-03, 01:38:05,VALID,914.199,VALID,0,VALID,94.7743,VALID,0,VALID,21.2827,VALID,20,VALID,0,
2013-06-03, 01:39:05,VALID,914.193,VALID,0,VALID,94.7743,VALID,0,VALID,21.2827,VALID,28,VALID,0,
2013-06-03, 01:40:04,VALID,914.16,VALID,0,VALID,94.7362,VALID,0,VALID,21.2632,VALID,21,VALID,0,
2013-06-03, 01:41:04,VALID,914.136,VALID,0,VALID,94.6981,VALID,0,VALID,21.2421,VALID,31,VALID,0,
2013-06-03, 01:42:04,VALID,914.097,VALID,0,VALID,94.7209,VALID,0,VALID,21.2421,VALID,32,VALID,0,
2013-06-03, 01:43:04,VALID,914.076,VALID,0,VALID,94.6752,VALID,0,VALID,21.2242,VALID,5,VALID,0,
2013-06-03, 01:44:04,VALID,914.084,VALID,0,VALID,94.6752,VALID,0,VALID,21.1836,VALID,6,VALID,0,
2013-06-03, 01:45:04,VALID,914.054,VALID,0,VALID,94.7209,VALID,0,VALID,21.2242,VALID,203,VALID,0,
2013-06-03, 01:46:04,VALID,913.978,VALID,0,VALID,94.6447,VALID,0,VALID,21.1836,VALID,203,VALID,0,
2013-06-03, 01:47:04,VALID,913.988,VALID,0,VALID,94.6371,VALID,0,VALID,21.164,VALID,49,VALID,0,
2013-06-03, 01:48:04,VALID,913.99,VALID,0,VALID,94.6142,VALID,0,VALID,21.1657,VALID,49,VALID,0,
2013-06-03, 01:49:04,VALID,913.949,VALID,0,VALID,94.66,VALID,0,VALID,21.1657,VALID,49,VALID,0,
2013-06-03, 01:50:04,VALID,913.899,VALID,0,VALID,94.6981,VALID,0,VALID,21.125,VALID,49,VALID,0,
2013-06-03, 01:51:04,VALID,913.906,VALID,0,VALID,94.7286,VALID,0,VALID,21.1055,VALID,52,VALID,0,
2013-06-03, 01:52:04,VALID,913.861,VALID,0,VALID,94.7209,VALID,0,VALID,21.1266,VALID,12,VALID,0,
2013-06-03, 01:53:04,VALID,913.868,VALID,0,VALID,94.7743,VALID,0,VALID,21.1266,VALID,325,VALID,0,
2013-06-03, 01:54:04,VALID,913.846,VALID,0,VALID,94.8429,VALID,0,VALID,21.1266,VALID,252,VALID,0,
2013-06-03, 01:55:04,VALID,913.825,VALID,0,VALID,94.8582,VALID,0,VALID,21.1461,VALID,297,VALID,0,
2013-06-03, 01:56:04,VALID,913.793,VALID,0,VALID,94.8353,VALID,0,VALID,21.1266,VALID,298,VALID,0,
2013-06-03, 01:57:04,VALID,913.792,VALID,0,VALID,94.8353,VALID,0,VALID,21.1266,VALID,298,VALID,0,
2013-06-03, 01:58:04,VALID,913.811,VALID,0,VALID,94.9192,VALID,0,VALID,21.1461,VALID,13,VALID,0,
2013-06-03, 01:59:04,VALID,913.816,VALID,0,VALID,94.881,VALID,0,VALID,21.1461,VALID,8,VALID,0,
2013-06-03, 02:00:04,VALID,913.797,VALID,0,VALID,94.881,VALID,0,VALID,21.1657,VALID,14,VALID,0,
2013-06-03, 02:01:04,VALID,913.785,VALID,0,VALID,94.9115,VALID,0,VALID,21.1657,VALID,14,VALID,0,
2013-06-03, 02:02:04,VALID,913.826,VALID,0,VALID,94.881,VALID,0,VALID,21.1852,VALID,14,VALID,0,
2013-06-03, 02:03:04,VALID,913.804,VALID,0,VALID,94.7743,VALID,0,VALID,21.2047,VALID,14,VALID,0,
2013-06-03, 02:04:04,VALID,913.768,VALID,0,VALID,94.6981,VALID,0,VALID,21.1852,VALID,34,VALID,0,
2013-06-03, 02:05:04,VALID,913.766,VALID,0,VALID,94.7667,VALID,0,VALID,21.1852,VALID,302,VALID,0,
2013-06-03, 02:06:04,VALID,913.796,VALID,0,VALID,94.7133,VALID,0,VALID,21.2047,VALID,26,VALID,0,
2013-06-03, 02:07:04,VALID,913.759,VALID,0,VALID,94.6752,VALID,0,VALID,21.2047,VALID,297,VALID,0,
2013-06-03, 02:08:04,VALID,913.78,VALID,0,VALID,94.4922,VALID,0,VALID,21.1852,VALID,20,VALID,0,
2013-06-03, 02:09:04,VALID,913.758,VALID,0,VALID,94.355,VALID,0,VALID,21.1852,VALID,16,VALID,0,
2013-06-03, 02:10:04,VALID,913.727,VALID,0,VALID,94.1873,VALID,0,VALID,21.164,VALID,354,VALID,0,
2013-06-03, 02:11:04,VALID,913.744,VALID,0,VALID,94.1034,VALID,0,VALID,21.1836,VALID,30,VALID,0,
2013-06-03, 02:12:04,VALID,913.729,VALID,0,VALID,94.0501,VALID,0,VALID,21.1836,VALID,39,VALID,0,
2013-06-03, 02:13:04,VALID,913.728,VALID,0,VALID,93.9815,VALID,0,VALID,21.2242,VALID,341,VALID,0,
2013-06-03, 02:14:04,VALID,913.658,VALID,0,VALID,93.9434,VALID,0,VALID,21.2437,VALID,277,VALID,0,
2013-06-03, 02:15:04,VALID,913.629,VALID,0,VALID,93.9281,VALID,0,VALID,21.2632,VALID,323,VALID,0,
2013-06-03, 02:16:04,VALID,913.621,VALID,0,VALID,93.8747,VALID,0,VALID,21.2437,VALID,340,VALID,0,
2013-06-03, 02:17:04,VALID,913.661,VALID,0,VALID,93.9434,VALID,0,VALID,21.2632,VALID,319,VALID,0,
2013-06-03, 02:18:04,VALID,913.652,VALID,0,VALID,93.9357,VALID,0,VALID,21.2632,VALID,235,VALID,0,
2013-06-03, 02:19:04,VALID,913.612,VALID,0,VALID,93.951,VALID,0,VALID,21.2632,VALID,235,VALID,0,
2013-06-03, 02:20:04,VALID,913.639,VALID,0,VALID,93.9662,VALID,0,VALID,21.3022,VALID,235,VALID,0,
2013-06-03, 02:21:04,VALID,913.59,VALID,0,VALID,94.0348,VALID,0,VALID,21.3022,VALID,235,VALID,0,
2013-06-03, 02:22:04,VALID,913.588,VALID,0,VALID,93.9281,VALID,0,VALID,21.2811,VALID,235,VALID,0,
2013-06-03, 02:23:04,VALID,913.552,VALID,0,VALID,93.8747,VALID,0,VALID,21.2827,VALID,235,VALID,0,
2013-06-03, 02:24:04,VALID,913.567,VALID,0,VALID,93.9205,VALID,0,VALID,21.2827,VALID,235,VALID,0,
2013-06-03, 02:25:04,VALID,913.573,VALID,0,VALID,93.9662,VALID,0,VALID,21.3022,VALID,308,VALID,0,
2013-06-03, 02:26:04,VALID,913.531,VALID,0,VALID,93.9891,VALID,0,VALID,21.3022,VALID,16,VALID,0,
2013-06-03, 02:27:04,VALID,913.536,VALID,0,VALID,93.9052,VALID,0,VALID,21.3022,VALID,15,VALID,0,
2013-06-03, 02:28:04,VALID,913.539,VALID,0,VALID,93.8976,VALID,0,VALID,21.2632,VALID,322,VALID,0,
2013-06-03, 02:29:04,VALID,913.534,VALID,0,VALID,93.9129,VALID,0,VALID,21.2421,VALID,292,VALID,0,
2013-06-03, 02:30:04,VALID,913.52,VALID,0,VALID,93.9891,VALID,0,VALID,21.2437,VALID,292,VALID,0,
2013-06-03, 02:31:04,VALID,913.527,VALID,0,VALID,94.0806,VALID,0,VALID,21.2437,VALID,310,VALID,0,
2013-06-03, 02:32:04,VALID,913.502,VALID,0,VALID,94.0272,VALID,0,VALID,21.2632,VALID,345,VALID,0,
2013-06-03, 02:33:04,VALID,913.511,VALID,0,VALID,94.073,VALID,0,VALID,21.2632,VALID,7,VALID,0,
2013-06-03, 02:34:04,VALID,913.51,VALID,0,VALID,94.012,VALID,0,VALID,21.2437,VALID,340,VALID,0,
2013-06-03, 02:35:04,VALID,913.497,VALID,0,VALID,93.9738,VALID,0,VALID,21.2632,VALID,2,VALID,0,
2013-06-03, 02:36:04,VALID,913.483,VALID,0,VALID,93.7299,VALID,0,VALID,21.2437,VALID,355,VALID,0,
2013-06-03, 02:37:04,VALID,913.465,VALID,0,VALID,93.6689,VALID,0,VALID,21.2226,VALID,351,VALID,0,
2013-06-03, 02:38:04,VALID,913.435,VALID,0,VALID,93.7528,VALID,0,VALID,21.2437,VALID,9,VALID,0,
2013-06-03, 02:39:04,VALID,913.413,VALID,0,VALID,93.6689,VALID,0.107441,VALID,21.2421,VALID,354,VALID,0,
2013-06-03, 02:40:04,VALID,913.459,VALID,0,VALID,93.7375,VALID,0,VALID,21.2437,VALID,331,VALID,0,
2013-06-03, 02:41:04,VALID,913.441,VALID,0,VALID,93.8061,VALID,0,VALID,21.2437,VALID,19,VALID,0,
2013-06-03, 02:42:04,VALID,913.448,VALID,0,VALID,93.8976,VALID,0,VALID,21.2632,VALID,5,VALID,0,
2013-06-03, 02:43:04,VALID,913.451,VALID,0,VALID,93.8061,VALID,0,VALID,21.2437,VALID,343,VALID,0,
2013-06-03, 02:44:04,VALID,913.392,VALID,0,VALID,93.7223,VALID,0,VALID,21.2031,VALID,5,VALID,0,
2013-06-03, 02:45:04,VALID,913.389,VALID,0,VALID,93.768,VALID,0,VALID,21.2226,VALID,12,VALID,0,
2013-06-03, 02:46:04,VALID,913.386,VALID,0,VALID,93.7299,VALID,0,VALID,21.2226,VALID,296,VALID,0,
2013-06-03, 02:47:04,VALID,913.405,VALID,0,VALID,93.7985,VALID,0,VALID,21.2226,VALID,321,VALID,0,
2013-06-03, 02:48:04,VALID,913.393,VALID,0,VALID,93.7756,VALID,0,VALID,21.2031,VALID,2,VALID,0,
2013-06-03, 02:49:04,VALID,913.365,VALID,0,VALID,93.8138,VALID,0,VALID,21.2047,VALID,329,VALID,0,
2013-06-03, 02:50:04,VALID,913.375,VALID,0,VALID,93.829,VALID,0,VALID,21.1836,VALID,347,VALID,0,
2013-06-03, 02:51:04,VALID,913.347,VALID,0,VALID,93.829,VALID,0,VALID,21.1852,VALID,6,VALID,0,
2013-06-03, 02:52:04,VALID,913.327,VALID,0,VALID,93.8443,VALID,0,VALID,21.125,VALID,349,VALID,0,
2013-06-03, 02:53:04,VALID,913.34,VALID,0,VALID,93.8824,VALID,0,VALID,21.1266,VALID,320,VALID,0,
2013-06-03, 02:54:04,VALID,913.34,VALID,0,VALID,93.9738,VALID,0,VALID,21.1071,VALID,320,VALID,0,
2013-06-03, 02:55:04,VALID,913.324,VALID,0,VALID,93.951,VALID,0,VALID,21.0876,VALID,3,VALID,0,
2013-06-03, 02:56:04,VALID,913.329,VALID,0,VALID,93.7299,VALID,0,VALID,21.0275,VALID,337,VALID,0,
2013-06-03, 02:57:04,VALID,913.316,VALID,0,VALID,93.646,VALID,0,VALID,21.0291,VALID,4,VALID,0,
2013-06-03, 02:58:04,VALID,913.345,VALID,0,VALID,93.4478,VALID,0,VALID,21.0096,VALID,357,VALID,0,
2013-06-03, 02:59:04,VALID,913.314,VALID,0,VALID,93.303,VALID,0,VALID,21.0291,VALID,352,VALID,0,
2013-06-03, 03:00:04,VALID,913.309,VALID,0,VALID,93.3411,VALID,0,VALID,21.0486,VALID,7,VALID,0,
2013-06-03, 03:01:04,VALID,913.284,VALID,0,VALID,93.3182,VALID,0,VALID,21.0681,VALID,3,VALID,0,
2013-06-03, 03:02:04,VALID,913.266,VALID,0,VALID,93.3716,VALID,0,VALID,21.0876,VALID,4,VALID,0,
2013-06-03, 03:03:04,VALID,913.244,VALID,0,VALID,93.364,VALID,0,VALID,21.0665,VALID,347,VALID,0,
2013-06-03, 03:04:04,VALID,913.235,VALID,0,VALID,93.4326,VALID,0,VALID,21.0876,VALID,345,VALID,0,
2013-06-03, 03:05:04,VALID,913.237,VALID,0,VALID,93.4859,VALID,0,VALID,21.0665,VALID,3,VALID,0,
2013-06-03, 03:06:04,VALID,913.238,VALID,0,VALID,93.5774,VALID,0,VALID,21.0876,VALID,344,VALID,0,
2013-06-03, 03:07:04,VALID,913.239,VALID,0,VALID,93.6689,VALID,0,VALID,21.1071,VALID,344,VALID,0,
2013-06-03, 03:08:04,VALID,913.253,VALID,0,VALID,93.6765,VALID,0,VALID,21.1071,VALID,13,VALID,0,
2013-06-03, 03:09:04,VALID,913.261,VALID,0,VALID,93.7299,VALID,0,VALID,21.1071,VALID,16,VALID,0,
2013-06-03, 03:10:04,VALID,913.269,VALID,0,VALID,93.6842,VALID,0,VALID,21.1071,VALID,284,VALID,0,
2013-06-03, 03:11:04,VALID,913.282,VALID,0,VALID,93.6918,VALID,0,VALID,21.0876,VALID,1,VALID,0,
2013-06-03, 03:12:04,VALID,913.259,VALID,0,VALID,93.7299,VALID,0,VALID,21.0681,VALID,39,VALID,0,
2013-06-03, 03:13:04,VALID,913.266,VALID,0,VALID,93.7299,VALID,0,VALID,21.0486,VALID,29,VALID,0,
2013-06-03, 03:14:04,VALID,913.277,VALID,0,VALID,93.6537,VALID,0,VALID,20.9901,VALID,1,VALID,0,
2013-06-03, 03:15:04,VALID,913.246,VALID,0,VALID,93.6994,VALID,0,VALID,20.9706,VALID,10,VALID,0,
2013-06-03, 03:16:04,VALID,913.228,VALID,0,VALID,93.7223,VALID,0,VALID,20.9706,VALID,353,VALID,0,
2013-06-03, 03:17:04,VALID,913.224,VALID,0,VALID,93.6918,VALID,0,VALID,20.9706,VALID,356,VALID,0,
2013-06-03, 03:18:04,VALID,913.211,VALID,0,VALID,93.6994,VALID,0,VALID,20.9316,VALID,356,VALID,0,
2013-06-03, 03:19:04,VALID,913.219,VALID,0,VALID,93.7528,VALID,0,VALID,20.912,VALID,354,VALID,0,
2013-06-03, 03:20:04,VALID,913.214,VALID,0,VALID,93.8366,VALID,0,VALID,20.9331,VALID,14,VALID,0,
2013-06-03, 03:21:04,VALID,913.182,VALID,0,VALID,93.8671,VALID,0,VALID,20.8925,VALID,13,VALID,0,
2013-06-03, 03:22:04,VALID,913.168,VALID,0,VALID,93.9434,VALID,0,VALID,20.8925,VALID,16,VALID,0,
2013-06-03, 03:23:04,VALID,913.167,VALID,0,VALID,93.9586,VALID,0,VALID,20.873,VALID,3,VALID,0,
2013-06-03, 03:24:04,VALID,913.148,VALID,0,VALID,93.9738,VALID,0,VALID,20.8535,VALID,3,VALID,0,
2013-06-03, 03:25:04,VALID,913.123,VALID,0,VALID,94.0501,VALID,0,VALID,20.8145,VALID,15,VALID,0,
2013-06-03, 03:26:04,VALID,913.138,VALID,0,VALID,94.1187,VALID,0,VALID,20.795,VALID,11,VALID,0,
2013-06-03, 03:27:04,VALID,913.146,VALID,0,VALID,94.2102,VALID,0,VALID,20.795,VALID,11,VALID,0,
2013-06-03, 03:28:04,VALID,913.17,VALID,0,VALID,94.233,VALID,0,VALID,20.795,VALID,11,VALID,0,
2013-06-03, 03:29:04,VALID,913.206,VALID,0,VALID,94.2178,VALID,0,VALID,20.795,VALID,11,VALID,0,
2013-06-03, 03:30:04,VALID,913.159,VALID,0,VALID,94.2635,VALID,0,VALID,20.7755,VALID,11,VALID,0,
2013-06-03, 03:31:04,VALID,913.2,VALID,0,VALID,94.2559,VALID,0,VALID,20.756,VALID,11,VALID,0,
2013-06-03, 03:32:04,VALID,913.186,VALID,0,VALID,94.2635,VALID,0,VALID,20.7365,VALID,11,VALID,0,
2013-06-03, 03:33:04,VALID,913.194,VALID,0,VALID,94.2712,VALID,0,VALID,20.6959,VALID,11,VALID,0,
2013-06-03, 03:34:04,VALID,913.212,VALID,0,VALID,94.3017,VALID,0,VALID,20.678,VALID,11,VALID,0,
2013-06-03, 03:35:04,VALID,913.19,VALID,0,VALID,94.3169,VALID,0,VALID,20.6374,VALID,11,VALID,0,
2013-06-03, 03:36:04,VALID,913.215,VALID,0,VALID,94.3321,VALID,0,VALID,20.639,VALID,11,VALID,0,
2013-06-03, 03:37:04,VALID,913.227,VALID,0,VALID,94.3169,VALID,0,VALID,20.639,VALID,11,VALID,0,
2013-06-03, 03:38:04,VALID,913.25,VALID,0,VALID,94.3321,VALID,0,VALID,20.6194,VALID,11,VALID,0,
2013-06-03, 03:39:04,VALID,913.23,VALID,0,VALID,94.4084,VALID,0,VALID,20.5999,VALID,11,VALID,0,
2013-06-03, 03:40:04,VALID,913.247,VALID,0,VALID,94.4008,VALID,0,VALID,20.5609,VALID,11,VALID,0,
2013-06-03, 03:41:04,VALID,913.267,VALID,0,VALID,94.4617,VALID,0,VALID,20.5609,VALID,11,VALID,0,
2013-06-03, 03:42:04,VALID,913.281,VALID,0,VALID,94.5685,VALID,0,VALID,20.5609,VALID,11,VALID,0,
2013-06-03, 03:43:04,VALID,913.285,VALID,0,VALID,94.6828,VALID,0,VALID,20.582,VALID,11,VALID,0,
2013-06-03, 03:44:04,VALID,913.306,VALID,0,VALID,94.5837,VALID,0,VALID,20.5219,VALID,11,VALID,0,
2013-06-03, 03:45:04,VALID,913.3,VALID,0,VALID,94.5151,VALID,0,VALID,20.5024,VALID,11,VALID,0,
2013-06-03, 03:46:04,VALID,913.29,VALID,0,VALID,94.5609,VALID,0,VALID,20.4634,VALID,11,VALID,0,
2013-06-03, 03:47:04,VALID,913.343,VALID,0,VALID,94.7362,VALID,0,VALID,20.4618,VALID,11,VALID,0,
2013-06-03, 03:48:04,VALID,913.352,VALID,0,VALID,94.6905,VALID,0,VALID,20.4228,VALID,11,VALID,0,
2013-06-03, 03:49:04,VALID,913.331,VALID,0,VALID,94.3398,VALID,0,VALID,20.3269,VALID,11,VALID,0,
2013-06-03, 03:50:04,VALID,913.351,VALID,0,VALID,94.6142,VALID,0,VALID,20.3284,VALID,11,VALID,0,
2013-06-03, 03:51:04,VALID,913.353,VALID,0,VALID,94.7667,VALID,0,VALID,20.3058,VALID,11,VALID,0,
2013-06-03, 03:52:04,VALID,913.327,VALID,0,VALID,95.0411,VALID,0,VALID,20.3269,VALID,11,VALID,0,
2013-06-03, 03:53:04,VALID,913.37,VALID,0,VALID,95.1707,VALID,0,VALID,20.3269,VALID,11,VALID,0,
2013-06-03, 03:54:04,VALID,913.39,VALID,0,VALID,95.2775,VALID,0,VALID,20.3659,VALID,11,VALID,0,
2013-06-03, 03:55:04,VALID,913.369,VALID,0,VALID,95.3994,VALID,0.107441,VALID,20.3838,VALID,11,VALID,0,
2013-06-03, 03:56:04,VALID,913.358,VALID,0,VALID,95.3842,VALID,0,VALID,20.4033,VALID,11,VALID,0,
2013-06-03, 03:57:04,VALID,913.356,VALID,0,VALID,95.2851,VALID,0.107441,VALID,20.3838,VALID,11,VALID,0,
2013-06-03, 03:58:04,VALID,913.342,VALID,0,VALID,95.0183,VALID,0,VALID,20.3074,VALID,11,VALID,0,
2013-06-03, 03:59:04,VALID,913.336,VALID,0,VALID,95.1402,VALID,0.107441,VALID,20.2668,VALID,11,VALID,0,
2013-06-03, 04:00:04,VALID,913.377,VALID,0,VALID,95.2012,VALID,0,VALID,20.2668,VALID,11,VALID,0,
2013-06-03, 04:01:04,VALID,913.383,VALID,0,VALID,95.3689,VALID,0,VALID,20.2879,VALID,11,VALID,0,